Date String (YYYY-MM-DD hh:mm:ss) UTC,Instrument flags,Ambient pressure (hPa),Sample flow (lpm),Bypass flow (lpm),Sample temperature (°C),Ambient temperature (°C),ASC tube jacket temperature (°C),LED temperature (°C),Box temperature (°C),Sample RH (%),Span deviation,Mass concentration (μg/m³),Mass concentration (μg/m³),Mass concentration (μg/m³)
DateTimeUTC,F1_M11,P_M11,Q1_M11,Q2_M11,T1_M11,T2_M11,T3_M11,T4_M11,T5_M11,U1_M11,ZSPAN_M11,X0_M11,X2_M11,X1_M11
2021-12-28 10:00:00,,0805.3,5.01,0.00,22.1,21.4,00.0,31.2,23.8,13.3,0000.0,0002.31,0000.59,0000.25
2021-12-28 10:01:00,,0805.2,5.00,0.00,22.2,21.6,00.0,31.2,23.8,13.3,0000.0,0002.18,0000.54,0000.24
2021-12-28 10:02:00,,0805.3,4.99,0.00,22.3,22.3,00.0,31.3,24.1,13.3,0000.0,0002.06,0000.52,0000.25
2021-12-28 10:03:00,,0805.2,5.01,0.00,22.4,23.2,00.0,31.3,24.4,13.2,0000.0,0002.07,0000.52,0000.25
2021-12-28 10:04:00,,0805.2,5.00,0.00,22.5,23.3,00.0,31.4,24.5,13.1,0000.0,0002.11,0000.58,0000.25
2021-12-28 10:05:00,,0805.2,5.00,0.00,22.6,23.1,00.0,31.4,24.5,13.0,0000.0,0001.90,0000.57,0000.25
2021-12-28 10:06:00,,0805.3,5.00,0.00,22.6,22.9,00.0,31.4,24.5,12.9,0000.0,0001.81,0000.55,0000.25
2021-12-28 10:07:00,,0805.3,5.01,0.00,22.6,22.7,00.0,31.4,24.4,12.9,0000.0,0001.42,0000.54,0000.25
2021-12-28 10:08:00,,0805.2,4.98,0.00,22.6,22.5,00.0,31.4,24.4,12.9,0000.0,0001.17,0000.52,0000.24
2021-12-28 10:09:00,,0805.3,5.00,0.00,22.6,22.4,00.0,31.4,24.3,13.0,0000.0,0001.04,0000.50,0000.24
2021-12-28 10:10:00,,0805.4,5.00,0.00,22.6,22.3,00.0,31.4,24.3,13.1,0000.0,0001.02,0000.52,0000.24
2021-12-28 10:11:00,,0805.5,5.00,0.00,22.6,22.2,00.0,31.5,24.3,13.1,0000.0,0000.97,0000.50,0000.24
2021-12-28 10:12:00,,0805.4,4.99,0.00,22.6,22.1,00.0,31.5,24.3,13.2,0000.0,0000.96,0000.50,0000.25
2021-12-28 10:13:00,,0805.5,5.01,0.00,22.5,22.0,00.0,31.5,24.2,13.2,0000.0,0000.98,0000.51,0000.24
2021-12-28 10:14:00,,0805.5,4.99,0.00,22.5,22.0,00.0,31.5,24.2,13.3,0000.0,0001.04,0000.55,0000.25
2021-12-28 10:15:00,,0805.4,5.00,0.00,22.5,21.9,00.0,31.5,24.2,13.4,0000.0,0000.90,0000.49,0000.25
2021-12-28 10:16:00,,0805.6,5.00,0.00,22.5,21.9,00.0,31.5,24.2,13.4,0000.0,0000.82,0000.48,0000.25
2021-12-28 10:17:00,,0805.6,5.00,0.00,22.5,21.8,00.0,31.5,24.2,13.4,0000.0,0000.76,0000.47,0000.25
2021-12-28 10:18:00,,0805.5,5.00,0.00,22.5,21.8,00.0,31.5,24.2,13.4,0000.0,0000.76,0000.46,0000.26
2021-12-28 10:19:00,,0805.5,5.00,0.00,22.5,21.8,00.0,31.5,24.2,13.4,0000.0,0000.72,0000.45,0000.25
2021-12-28 10:20:00,,0805.6,4.99,0.00,22.5,21.8,00.0,31.4,24.2,13.5,0000.0,0000.72,0000.45,0000.25
2021-12-28 10:21:00,,0805.6,5.01,0.00,22.4,21.8,00.0,31.4,24.2,13.5,0000.0,0000.71,0000.44,0000.26
2021-12-28 10:22:00,,0805.7,5.00,0.00,22.4,21.8,00.0,31.4,24.1,13.4,0000.0,0000.71,0000.44,0000.26
2021-12-28 10:23:00,,0805.7,5.00,0.00,22.4,21.7,00.0,31.4,24.2,13.3,0000.0,0000.74,0000.45,0000.26
2021-12-28 10:24:00,,0805.7,5.00,0.00,22.4,21.7,00.0,31.4,24.2,13.3,0000.0,0000.73,0000.44,0000.27
2021-12-28 10:25:00,,0805.8,4.99,0.00,22.4,21.7,00.0,31.4,24.1,13.3,0000.0,0000.67,0000.41,0000.27
2021-12-28 10:26:00,,0805.8,5.00,0.00,22.4,21.7,00.0,31.4,24.0,13.1,0000.0,0000.63,0000.40,0000.27
2021-12-28 10:27:00,,0805.8,5.02,0.00,22.3,21.6,00.0,31.4,24.0,13.0,0000.0,0000.66,0000.39,0000.27
2021-12-28 10:28:00,,0805.7,4.99,0.00,22.3,21.5,00.0,31.4,23.9,12.9,0000.0,0000.67,0000.39,0000.27
2021-12-28 10:29:00,,0805.7,5.00,0.00,22.2,21.5,00.0,31.4,23.8,12.9,0000.0,0000.69,0000.40,0000.26
2021-12-28 10:30:00,,0805.6,5.00,0.00,22.2,21.4,00.0,31.3,23.7,12.6,0000.0,0000.91,0000.49,0000.28
2021-12-28 10:31:00,,0805.6,5.01,0.00,22.1,21.3,00.0,31.3,23.7,12.2,0000.0,0002.83,0000.63,0000.33
2021-12-28 10:32:00,,0805.6,5.02,0.00,22.1,21.4,00.0,31.3,23.7,12.0,0000.0,0004.69,0000.81,0000.38
2021-12-28 10:33:00,,0805.7,4.99,0.00,22.2,22.1,00.0,31.3,24.0,11.9,0000.0,0005.28,0000.93,0000.41
2021-12-28 10:34:00,,0805.8,4.99,0.00,22.3,22.9,00.0,31.4,24.3,11.8,0000.0,0006.25,0001.12,0000.46
2021-12-28 10:35:00,,0805.8,5.00,0.00,22.5,23.4,00.0,31.4,24.5,11.7,0000.0,0007.10,0001.22,0000.48
2021-12-28 10:36:00,,0805.8,4.99,0.00,22.6,23.2,00.0,31.4,24.5,11.7,0000.0,0007.39,0001.26,0000.50
2021-12-28 10:37:00,,0805.7,5.02,0.00,22.6,22.9,00.0,31.4,24.4,11.8,0000.0,0007.41,0001.29,0000.52
2021-12-28 10:38:00,,0805.8,4.99,0.00,22.6,22.7,00.0,31.5,24.3,11.8,0000.0,0007.54,0001.34,0000.54
2021-12-28 10:39:00,,0805.7,5.01,0.00,22.5,22.5,00.0,31.5,24.2,11.8,0000.0,0007.67,0001.40,0000.57
2021-12-28 10:40:00,,0805.6,4.99,0.00,22.5,22.3,00.0,31.5,24.2,11.9,0000.0,0008.00,0001.49,0000.60
2021-12-28 10:41:00,,0805.6,5.01,0.00,22.5,22.2,00.0,31.5,24.1,11.7,0000.0,0008.51,0001.56,0000.63
2021-12-28 10:42:00,,0805.4,4.99,0.00,22.4,22.0,00.0,31.5,24.0,11.6,0000.0,0008.46,0001.62,0000.65
2021-12-28 10:43:00,,0805.5,5.00,0.00,22.4,21.9,00.0,31.5,24.0,11.7,0000.0,0007.63,0001.60,0000.65
2021-12-28 10:44:00,,0805.6,4.99,0.00,22.4,21.8,00.0,31.4,24.0,11.6,0000.0,0007.69,0001.59,0000.66
2021-12-28 10:45:00,,0805.7,5.01,0.00,22.3,21.7,00.0,31.4,23.9,11.6,0000.0,0007.97,0001.52,0000.66
2021-12-28 10:46:00,,0805.6,4.98,0.00,22.3,21.7,00.0,31.4,23.9,11.6,0000.0,0007.71,0001.53,0000.67
2021-12-28 10:47:00,,0805.4,5.00,0.00,22.3,21.6,00.0,31.4,23.9,11.6,0000.0,0007.76,0001.59,0000.69
2021-12-28 10:48:00,,0805.5,5.01,0.00,22.3,21.6,00.0,31.4,23.9,11.6,0000.0,0008.71,0001.67,0000.70
2021-12-28 10:49:00,,0805.6,4.98,0.00,22.2,21.5,00.0,31.4,23.8,11.6,0000.0,0008.77,0001.71,0000.70
2021-12-28 10:50:00,,0805.8,5.00,0.00,22.2,21.5,00.0,31.4,23.8,11.6,0000.0,0008.89,0001.80,0000.70
2021-12-28 10:51:00,,0805.8,5.01,0.00,22.2,21.5,00.0,31.3,23.8,11.6,0000.0,0008.85,0001.80,0000.70
2021-12-28 10:52:00,,0805.9,4.98,0.00,22.2,21.5,00.0,31.3,23.8,11.5,0000.0,0008.44,0001.74,0000.68
2021-12-28 10:53:00,,0806.1,5.00,0.00,22.2,21.8,00.0,31.3,23.9,11.5,0000.0,0007.68,0001.64,0000.63
2021-12-28 10:54:00,,0806.2,5.00,0.00,22.3,22.6,00.0,31.4,24.2,11.5,0000.0,0007.56,0001.59,0000.62
2021-12-28 10:55:00,,0806.2,4.99,0.00,22.5,23.2,00.0,31.4,24.4,11.3,0000.0,0007.40,0001.58,0000.60
2021-12-28 10:56:00,,0806.1,4.99,0.00,22.6,23.1,00.0,31.4,24.5,11.2,0000.0,0006.17,0001.55,0000.58
2021-12-28 10:57:00,,0806.0,5.01,0.00,22.6,22.8,00.0,31.4,24.4,11.2,0000.0,0006.06,0001.51,0000.54
2021-12-28 10:58:00,,0805.9,5.00,0.00,22.6,22.6,00.0,31.5,24.3,11.1,0000.0,0005.72,0001.44,0000.51
2021-12-28 10:59:00,,0805.9,4.99,0.00,22.5,22.4,00.0,31.5,24.2,11.1,0000.0,0005.36,0001.42,0000.48
